User: anonymous   Login
Location: PACMO
(41.3967°N, 90.3760°W)
Time: 05:27:21
(UTC-05:00)
Language:

BREEZE-M DEB (TANK) - Orbit

View from above orbital plane
View from above orbital plane
View from above satellite
View from above satellite

Ground track
Ground track

The orbit data is extracted from the following two-line orbital elements,

1 31863U 07032B   15148.36276817  .00000400  00000-0  24516-3 0  9997
2 31863 045.9226 275.8612 4997119 057.0546 341.5229 05.51551511158075
Epoch (UTC): 28 May 2015 08:42:23
Eccentricity: 0.4997119
inclination: 45.9226°
perigee height: 391 km
apogee height: 13915 km
right ascension of ascending node: 275.8612°
argument of perigee: 57.0546°
revolutions per day: 5.51551511
mean anomaly at epoch: 341.5229°
orbit number at epoch: 15807

The dashed part of the orbit path shows where the satellite is in the earth's shadow,  

DLR